This demonstration page uses our WeatherBlox Daily Observations layout. Learn more.

Left ArrowRight Arrow

39.08367, -84.50855

Hourly Observations for February 5, 2016

Temp ( °F °C ) Dew Point ( °F °C ) Humidity (%) Winds ( mph kmh ) Pressure ( in mb ) Visibility ( mi km ) Precip ( " mm )
12:53 am 00:53 Clear 25 -3.9 18 -7.8 75 75 N N/A 30.40 1029 10 16 N/A
1:53 am 01:53 Clear 23 -5 18 -7.8 81 81 N N/A 30.40 1029 10 16 N/A
2:53 am 02:53 Clear 23 -5 20 -6.7 88 88 N N/A 30.41 1030 10 16 N/A
3:53 am 03:53 Clear 21 -6.1 19 -7.2 92 92 N N/A 30.41 1030 10 16 N/A
4:53 am 04:53 Clear 21 -6.1 20 -6.7 96 96 N N/A 30.42 1030 9 14 N/A
5:53 am 05:53 Clear 21 -6.1 19 -7.2 92 92 N N/A 30.42 1030 8 13 N/A
6:53 am 06:53 Clear 19 -7.2 18 -7.8 96 96 N N/A 30.45 1031 10 16 N/A
7:53 am 07:53 Sunny 20 -6.7 19 -7.2 96 96 N N/A 30.47 1032 10 16 N/A
8:53 am 08:53 Sunny 23 -5 22 -5.6 96 96 S 3 6 30.48 1032 10 16 N/A
9:53 am 09:53 Sunny 28 -2.2 22 -5.6 78 78 VRB 3 6 30.49 1033 10 16 N/A
10:53 am 10:53 Sunny 32 undefined 22 -5.6 66 66 SSW 7 11 30.49 1033 10 16 N/A
11:53 am 11:53 Sunny 36 2.2 20 -6.7 52 52 VRB 6 9 30.46 1032 10 16 N/A
12:53 pm 12:53 Sunny 40 4.4 20 -6.7 45 45 SSW 8 13 30.42 1030 10 16 N/A
1:53 pm 13:53 Sunny 42 5.6 21 -6.1 43 43 S 10 17 30.39 1029 10 16 N/A
2:53 pm 14:53 Sunny 42 5.6 18 -7.8 38 38 S 7 11 30.38 1029 10 16 N/A
3:53 pm 15:53 Sunny 42 5.6 17 -8.3 36 36 SSW 13 20 30.38 1029 10 16 N/A
4:53 pm 16:53 Sunny 42 5.6 19 -7.2 40 40 SSW 13 20 30.39 1029 10 16 N/A
5:53 pm 17:53 Sunny 39 3.9 20 -6.7 46 46 SSW 9 15 30.39 1029 10 16 N/A
6:53 pm 18:53 Clear 34 1.1 20 -6.7 56 56 S 7 11 30.40 1029 10 16 N/A
7:53 pm 19:53 Mostly Cloudy 36 2.2 22 -5.6 57 57 SSW 5 7 30.38 1029 10 16 N/A
8:53 pm 20:53 Clear 32 undefined 21 -6.1 64 64 SSW 7 11 30.38 1029 10 16 N/A
9:53 pm 21:53 Cloudy 32 undefined 23 -5 69 69 SSW 5 7 30.37 1028 10 16 N/A
10:53 pm 22:53 Partly Cloudy 32 undefined 22 -5.6 66 66 N N/A 30.36 1028 10 16 N/A
11:53 pm 23:53 Clear 31 -0.6 23 -5 72 72 N N/A 30.37 1029 10 16 N/A

Powered by AerisWeather